Weather in Yuen Long

China     22°26′36″N   114°01′20″E
temp.,
°C
wind,
m/s
gust,
m/s
humid.,
%
clouds,
%
prec.,
mm/h
press.,
hPa
HPBL,
m
10 may, mon
mon1023:00+26s4683100 0.0 1009372
02:00+26s468519 0.0 1007436
05:00+25sse35857 0.0 1008443
08:00+27sse4578100 0.0 1010665
11:00+28s457195 0.0 1010705
14:00+29s567184 0.0 1009725
17:00+28s57755 0.0 1007649
20:00+27s47845 0.0 1008465
11 may, tue
tue1123:00+26sse478723 0.0 1009451
02:00+26sse478912 0.1 1008412
05:00+26s468389 0.1 1007382
08:00+28s5773100 0.1 1009669
11:00+29ssw677085 0.0 1009784
14:00+30ssw687114 0.1 1008899
17:00+29s687246 0.1 1006843
20:00+28ssw587710 0.1 1007512
12 may, wed
wed1223:00+27ssw48860 0.0 1008376
02:00+27s48912 0.3 1007420
05:00+27s35896 0.4 1007190
08:00+28ssw46820 0.8 1009466
11:00+29ssw677535 0.2 1009803
14:00+30ssw577255 0.3 1007765
17:00+29ssw4772100 0.0 1006665
20:00+28s47850 0.0 1007425
13 may, thu
thu1323:00+27s36905 0.1 1008333
02:00+27s36919 0.6 1007310
05:00+27s36910 0.7 1007252
08:00+28sse467622 0.9 1009446
11:00+30ssw566823 0.1 1009711
14:00+30ssw56685 0.1 1007766
17:00+29s46715 0.0 1006652
20:00+28sse46814 0.0 1007416
14 may, fri
fri1423:00+28se4582100 0.1 1008290
02:00+27sse468937 0.1 1007320
05:00+27se35895 0.3 1007267
08:00+28sse468112 0.5 1009571
11:00+29ssw567410 0.5 1009781
14:00+30s56714 0.5 1007789
17:00+29s56740 0.0 1006648
20:00+28sse468152 0.0 1008401